Mattoon, IL

10:13 PM CDT on October 18, 2019 (GMT -0500)
Coles County Memorial

Weather History for KMTO - May, 2019

Change the Weather History Date:

Thursday, May 2, 2019

  Actual Average Record
Temperature  
Mean Temperature 61 °F 59 °F  
Max Temperature 66 °F 69 °F 88 °F (1959)
Min Temperature 55 °F 49 °F 31 °F (1966)
Degree Days  
Heating Degree Days 4 7  
Month to date heating degree days 4 14  
Since 1 July heating degree days 5391 5276  
Cooling Degree Days 0 1  
Month to date cooling degree days 1 2  
Year to date cooling degree days 6 16  
Growing Degree Days 12 (Base 50)    
Moisture  
Dew Point 60 °F    
Average Humidity 94    
Maximum Humidity 100    
Minimum Humidity 87    
Precipitation  
Precipitation 0.22 in 0.16 in 2.50 in (2013)
Month to date precipitation 0.22 0.32  
Year to date precipitation 9.24 10.30  
Sea Level Pressure  
Sea Level Pressure 30.04 in    
Wind  
Wind Speed 7 mph (South)    
Max Wind Speed 15 mph    
Max Gust Speed 21 mph    
Visibility 7 miles    
Events Fog , Rain    
T = Trace of Precipitation, MM = Missing Value Source: NWS Daily Summary

Daily Weather History Graph

Daily Weather History Graph

Search for Another Location

Airport or City:

Astronomy

May. 02, 2019 Rise Set
Actual Time 5:53 AM CDT 7:47 PM CDT
Civil Twilight 5:24 AM CDT 8:16 PM CDT
Nautical Twilight 4:48 AM CDT 8:52 PM CDT
Astronomical Twilight 4:10 AM CDT 9:30 PM CDT
Moon 5:04 AM CDT (5/2) 5:35 PM CDT (5/2)
Length of Visible Light 14h 52m
Length of Day
13h 54m
Waning Crescent, 5% of the Moon is Illuminated
May 2
Waning Crescent
May 4
New
May 11
First Quarter
May 18
Full
May 26
Last Quarter

Hourly Weather History & Observations

Time (CDT) Temp. Dew Point Humidity Pressure Visibility Wind Dir Wind Speed Gust Speed Precip Events Conditions
12:53 AM 61.0 °F 59.0 °F 93% 30.07 in 10.0 mi South 6.9 mph - N/A   Partly Cloudy
1:53 AM 60.1 °F 59.0 °F 96% 30.04 in 9.0 mi SSE 5.8 mph - N/A   Clear
2:53 AM 59.0 °F 57.9 °F 96% 30.02 in 9.0 mi SSE 5.8 mph - N/A   Clear
3:01 AM 59.0 °F 57.9 °F 96% 30.03 in 6.0 mi SSE 8.1 mph - N/A   Scattered Clouds
3:06 AM 59.0 °F 57.9 °F 96% 30.03 in 2.5 mi SSE 8.1 mph - N/A   Mostly Cloudy
3:12 AM 59.0 °F 57.9 °F 96% 30.03 in 0.8 mi SSE 6.9 mph - N/A   Mist
3:30 AM 59.0 °F 59.0 °F 100% 30.03 in 0.2 mi South 4.6 mph - N/A Fog Fog
3:38 AM 59.0 °F 59.0 °F 100% 30.03 in 0.5 mi SSE 8.1 mph - N/A Fog Fog
3:53 AM 59.0 °F 59.0 °F 100% 30.02 in 0.5 mi SSE 6.9 mph - N/A Fog Fog
4:11 AM 60.1 °F 59.0 °F 96% 30.03 in 0.2 mi South 6.9 mph - N/A Fog Fog
4:23 AM 60.1 °F 59.0 °F 96% 30.03 in 0.2 mi SSE 4.6 mph - N/A Fog Fog
4:53 AM 60.1 °F 59.0 °F 96% 30.02 in 0.2 mi SSE 5.8 mph - N/A Fog Fog
5:18 AM 59.0 °F 59.0 °F 100% 30.03 in 0.2 mi SE 4.6 mph - N/A Fog Fog
5:53 AM 60.1 °F 59.0 °F 96% 30.02 in 0.2 mi ESE 3.5 mph - N/A Fog Fog
6:53 AM 60.1 °F 59.0 °F 96% 30.06 in 0.2 mi South 10.4 mph - N/A Fog Fog
7:03 AM 59.0 °F 59.0 °F 100% 30.07 in 0.5 mi SSE 8.1 mph - 0.08 in Fog , Rain Heavy Rain
7:16 AM 59.0 °F 59.0 °F 100% 30.07 in 1.8 mi South 8.1 mph - 0.13 in Rain Rain
7:18 AM 59.0 °F 59.0 °F 100% 30.07 in 2.5 mi SSE 8.1 mph - 0.14 in Rain Rain
7:23 AM 59.0 °F 59.0 °F 100% 30.06 in 4.0 mi SSE 9.2 mph - 0.14 in Rain Rain
7:53 AM 60.1 °F 59.0 °F 96% 30.07 in 8.0 mi South 8.1 mph - 0.14 in Rain Light Rain
8:53 AM 61.0 °F 60.1 °F 97% 30.06 in 8.0 mi South 9.2 mph - 0.01 in Rain Light Rain
9:15 AM 62.1 °F 60.1 °F 93% 30.06 in 9.0 mi SSE 9.2 mph - 0.00 in   Overcast
9:53 AM 62.1 °F 60.1 °F 93% 30.08 in 10.0 mi South 8.1 mph - 0.01 in   Overcast
10:25 AM 63.0 °F 61.0 °F 93% 30.08 in 2.5 mi South 5.8 mph - 0.04 in Rain Rain
10:33 AM 63.0 °F 61.0 °F 93% 30.08 in 5.0 mi SSE 6.9 mph - 0.05 in Rain Rain
10:53 AM 63.0 °F 61.0 °F 93% 30.07 in 6.0 mi SSE 8.1 mph - 0.06 in Rain Rain
11:42 AM 64.0 °F 61.0 °F 90% 30.07 in 10.0 mi South 9.2 mph - 0.00 in   Mostly Cloudy
11:53 AM 64.9 °F 61.0 °F 87% 30.06 in 10.0 mi South 8.1 mph - 0.00 in   Overcast
12:18 PM 64.0 °F 61.0 °F 90% 30.07 in 10.0 mi South 11.5 mph 19.6 mph N/A   Overcast
12:28 PM 64.0 °F 61.0 °F 90% 30.07 in 10.0 mi South 12.7 mph 21.9 mph 0.00 in Rain Light Rain
12:53 PM 64.0 °F 62.1 °F 93% 30.05 in 10.0 mi South 9.2 mph - 0.00 in Rain Light Rain
1:43 PM 64.9 °F 63.0 °F 93% 30.06 in 7.0 mi SW 8.1 mph 18.4 mph 0.00 in Rain Light Rain
1:53 PM 64.9 °F 64.0 °F 97% 30.05 in 8.0 mi SW 8.1 mph - 0.00 in Rain Light Rain
2:28 PM 64.9 °F 64.0 °F 97% 30.03 in 10.0 mi SW 5.8 mph - 0.00 in Rain Light Rain
2:53 PM 66.0 °F 64.0 °F 93% 30.03 in 10.0 mi WSW 5.8 mph - 0.00 in Rain Light Rain
3:21 PM 66.0 °F 63.0 °F 90% 30.03 in 10.0 mi SW 5.8 mph - 0.00 in Rain Light Rain
3:53 PM 66.0 °F 63.0 °F 90% 30.02 in 10.0 mi WSW 11.5 mph - 0.00 in Rain Light Rain
4:14 PM 64.9 °F 62.1 °F 90% 30.03 in 10.0 mi WSW 8.1 mph - 0.00 in Rain Light Rain
4:36 PM 64.9 °F 64.0 °F 97% 30.02 in 10.0 mi SW 5.8 mph - 0.00 in Rain Light Rain
4:53 PM 64.9 °F 64.0 °F 97% 30.01 in 10.0 mi SSW 5.8 mph - 0.00 in Rain Light Rain
5:53 PM 64.0 °F 61.0 °F 90% 30.00 in 10.0 mi SSW 5.8 mph - 0.00 in Rain Light Rain
6:53 PM 63.0 °F 62.1 °F 97% 30.00 in 10.0 mi Calm Calm - 0.00 in Rain Light Rain
7:30 PM 64.0 °F 64.0 °F 100% 30.01 in 10.0 mi Calm Calm - 0.00 in Rain Light Rain
7:38 PM 64.0 °F 64.0 °F 100% 30.02 in 10.0 mi Calm Calm - 0.00 in Rain Light Rain
7:53 PM 62.1 °F 61.0 °F 96% 30.02 in 9.0 mi NNW 8.1 mph - 0.00 in Rain Light Rain
8:14 PM 61.0 °F 61.0 °F 100% 30.03 in 9.0 mi NNW 6.9 mph - 0.00 in Rain Light Rain
8:22 PM 61.0 °F 60.1 °F 97% 30.03 in 9.0 mi North 10.4 mph - 0.00 in Rain Light Rain
8:53 PM 60.1 °F 59.0 °F 96% 30.03 in 10.0 mi North 6.9 mph - 0.00 in Rain Light Rain
9:53 PM 57.9 °F 55.9 °F 93% 30.04 in 10.0 mi NNW 8.1 mph - 0.00 in Rain Light Rain
10:06 PM 57.9 °F 55.9 °F 93% 30.05 in 9.0 mi NNW 8.1 mph - 0.00 in   Overcast
10:53 PM 57.0 °F 55.9 °F 96% 30.04 in 7.0 mi North 6.9 mph - 0.00 in   Overcast
11:53 PM 55.9 °F 54.0 °F 93% 30.04 in 6.0 mi North 9.2 mph - 0.00 in Rain Light Rain